Simultaneous Nadir Overpasses (SNOs) Predictions

Prediction of SNOs between LANDSAT-8 and NOAA-19 Satellite Orbit:

Table of predicted SNOs for the next 14.0 days since TLE Epoch: 2/3/2024
Index Date (LANDSAT-8) Time (LANDSAT-8) Lat,Lon (LANDSAT-8) SZA (LANDSAT-8 ) Date (NOAA-19) Time (NOAA-19) Lat,Lon (NOAA-19) SZA (NOAA-19 ) Distance(km) Time Diff (sec)
1 02/03/2024 12:40:42 -80.86,-154.10 81.22 02/03/2024 12:40:40 -80.85,-154.17 81.23 1.42 2
2 02/05/2024 19:03:54 -80.85, 109.93 81.93 02/05/2024 19:03:49 -80.84, 109.82 81.94 1.95 5
3 02/08/2024 01:27:05 -80.85, 14.19 82.62 02/08/2024 01:26:57 -80.85, 14.11 82.63 1.63 8
4 02/10/2024 07:50:16 -80.85, -81.65 83.35 02/10/2024 07:50:05 -80.84, -81.66 83.35 0.45 11
5 02/12/2024 14:13:26 -80.83,-177.61 84.11 02/12/2024 14:13:12 -80.84,-177.50 84.10 2.10 14
6 02/14/2024 20:36:36 -80.84, 86.66 84.86 02/14/2024 20:36:20 -80.84, 86.60 84.87 1.13 16
7 02/14/2024 21:25:41 81.34, -98.09 96.22 02/14/2024 21:26:54 80.98, -97.15 96.06 43.68 73



Historial Predications of SNOs between LANDSAT-8 and NOAA-19
